When you browse on this site, cookies collect data to enhance your experience and personalize the content and advertising you see.
Visit our Privacy Policy to learn more. By continuing to use the site, you agree to this use of cookies and data.
  • In France
  • List of Countries
  • For 7 days
  • Water Temperature
  • Satellite Maps
  • Weather Map
  • Weather Widgets
  • user-avatar
    Login

    Hourly Weather Sucre

    Today, 27 May, Monday

    Time Temperature Precipitation Wind Pressure Humidity
    00:00 +12°C° 0 mm 1 mps 539 mmHg 37%
    01:00 +12°C° 0 mm 1 mps 539 mmHg 37%
    02:00 +11°C° 0 mm 1 mps 539 mmHg 37%
    03:00 +11°C° 0 mm 1 mps 539 mmHg 36%
    04:00 +10°C° 0 mm 1 mps 538 mmHg 34%
    05:00 +10°C° 0 mm 1 mps 538 mmHg 32%
    06:00 +11°C° 0 mm 1 mps 539 mmHg 30%
    07:00 +13°C° 0 mm 1 mps 540 mmHg 27%
    08:00 +14°C° 0 mm 1 mps 541 mmHg 25%
    09:00 +16°C° 0 mm 1 mps 542 mmHg 21%
    10:00 +19°C° 0 mm 1 mps 543 mmHg 16%
    11:00 +20°C° 0 mm 2 mps 543 mmHg 12%
    12:00 +21°C° 0 mm 2 mps 543 mmHg 12%
    13:00 +22°C° 0 mm 3 mps 543 mmHg 13%
    14:00 +23°C° 0 mm 4 mps 543 mmHg 13%
    15:00 +22°C° 0 mm 4 mps 543 mmHg 16%
    16:00 +21°C° 0 mm 4 mps 542 mmHg 18%
    17:00 +21°C° 0 mm 3 mps 542 mmHg 21%
    18:00 +19°C° 0 mm 3 mps 541 mmHg 32%
    19:00 +17°C° 0 mm 2 mps 541 mmHg 44%
    20:00 +14°C° 0 mm 1 mps 540 mmHg 55%
    21:00 +14°C° 0 mm 1 mps 540 mmHg 60%
    22:00 +13°C° 0 mm 1 mps 540 mmHg 65%
    23:00 +13°C° 0 mm 1 mps 540 mmHg 69%

    Tomorrow, 28 May, Tuesday

    Time Temperature Precipitation Wind Pressure Humidity
    00:00 +12°C° 0 mm 1 mps 540 mmHg 69%
    01:00 +12°C° 0 mm 1 mps 540 mmHg 68%
    02:00 +11°C° 0 mm 1 mps 539 mmHg 67%
    03:00 +11°C° 0 mm 1 mps 539 mmHg 63%
    04:00 +10°C° 0 mm 1 mps 539 mmHg 59%
    05:00 +10°C° 0 mm 1 mps 539 mmHg 55%
    06:00 +11°C° 0 mm 1 mps 540 mmHg 47%
    07:00 +12°C° 0 mm 1 mps 541 mmHg 40%
    08:00 +14°C° 0 mm 1 mps 542 mmHg 32%
    09:00 +16°C° 0 mm 1 mps 543 mmHg 27%
    10:00 +18°C° 0 mm 2 mps 544 mmHg 21%
    11:00 +20°C° 0 mm 2 mps 544 mmHg 16%
    12:00 +20°C° 0 mm 3 mps 544 mmHg 16%
    13:00 +21°C° 0 mm 4 mps 544 mmHg 16%
    14:00 +22°C° 0 mm 4 mps 544 mmHg 16%
    15:00 +21°C° 0 mm 4 mps 543 mmHg 19%
    16:00 +21°C° 0 mm 4 mps 543 mmHg 22%
    17:00 +20°C° 0 mm 3 mps 542 mmHg 25%
    18:00 +18°C° 0 mm 3 mps 542 mmHg 36%
    19:00 +16°C° 0 mm 2 mps 542 mmHg 47%
    20:00 +14°C° 0 mm 1 mps 541 mmHg 58%
    21:00 +14°C° 0 mm 1 mps 541 mmHg 65%
    22:00 +13°C° 0 mm 1 mps 541 mmHg 72%
    23:00 +13°C° 0 mm 1 mps 541 mmHg 80%

    Day after tomorrow, 29 May, Wednesday

    Time Temperature Precipitation Wind Pressure Humidity
    00:00 +12°C° 0 mm 1 mps 541 mmHg 82%
    01:00 +12°C° 0 mm 1 mps 541 mmHg 85%
    02:00 +12°C° 0 mm 1 mps 541 mmHg 87%
    03:00 +12°C° 0 mm 2 mps 540 mmHg 87%
    04:00 +12°C° 0 mm 2 mps 540 mmHg 87%
    05:00 +10°C° 0 mm 2 mps 540 mmHg 87%
    06:00 +12°C° 0 mm 2 mps 541 mmHg 82%
    07:00 +12°C° 0 mm 2 mps 541 mmHg 77%
    08:00 +13°C° 0 mm 2 mps 542 mmHg 72%
    09:00 +15°C° 0 mm 2 mps 542 mmHg 63%
    10:00 +16°C° 0 mm 3 mps 543 mmHg 53%
    11:00 +18°C° 0 mm 3 mps 543 mmHg 44%
    12:00 +19°C° 0 mm 4 mps 543 mmHg 39%
    13:00 +20°C° 0 mm 4 mps 543 mmHg 34%
    14:00 +22°C° 0 mm 5 mps 543 mmHg 29%
    15:00 +21°C° 0 mm 5 mps 542 mmHg 31%
    16:00 +21°C° 0 mm 4 mps 542 mmHg 33%
    17:00 +21°C° 0 mm 4 mps 541 mmHg 35%
    18:00 +19°C° 0 mm 3 mps 541 mmHg 44%
    19:00 +17°C° 0 mm 2 mps 541 mmHg 54%
    20:00 +15°C° 0 mm 1 mps 540 mmHg 63%
    21:00 +15°C° 0 mm 1 mps 540 mmHg 65%
    22:00 +14°C° 0 mm 1 mps 540 mmHg 67%
    23:00 +14°C° 0 mm 2 mps 540 mmHg 68%

    30 May, Thursday

    Time Temperature Precipitation Wind Pressure Humidity
    00:00 +13°C° 0 mm 1 mps 540 mmHg 64%
    01:00 +12°C° 0 mm 1 mps 539 mmHg 60%
    02:00 +12°C° 0 mm 1 mps 539 mmHg 55%
    03:00 +11°C° 0 mm 1 mps 539 mmHg 49%
    04:00 +11°C° 0 mm 1 mps 538 mmHg 42%
    05:00 +11°C° 0 mm 1 mps 538 mmHg 35%
    06:00 +12°C° 0 mm 1 mps 539 mmHg 31%
    07:00 +13°C° 0 mm 2 mps 540 mmHg 26%
    08:00 +14°C° 0 mm 2 mps 541 mmHg 22%
    09:00 +16°C° 0 mm 2 mps 542 mmHg 17%
    10:00 +19°C° 0 mm 2 mps 543 mmHg 13%
    11:00 +21°C° 0 mm 2 mps 544 mmHg 8%
    12:00 +23°C° 0 mm 2 mps 544 mmHg 8%
    13:00 +24°C° 0 mm 3 mps 544 mmHg 8%
    14:00 +25°C° 0 mm 4 mps 544 mmHg 7%
    15:00 +25°C° 0 mm 3 mps 543 mmHg 9%
    16:00 +24°C° 0 mm 3 mps 543 mmHg 11%
    17:00 +24°C° 0 mm 2 mps 542 mmHg 13%
    18:00 +20°C° 0 mm 2 mps 542 mmHg 20%
    19:00 +18°C° 0 mm 2 mps 541 mmHg 26%
    20:00 +15°C° 0 mm 1 mps 540 mmHg 33%
    21:00 +15°C° 0 mm 1 mps 540 mmHg 40%
    22:00 +14°C° 0 mm 1 mps 540 mmHg 47%
    23:00 +13°C° 0 mm 1 mps 540 mmHg 55%

    31 May, Friday

    Time Temperature Precipitation Wind Pressure Humidity
    00:00 +13°C° 0 mm 1 mps 539 mmHg 58%
    01:00 +12°C° 0 mm 1 mps 539 mmHg 61%
    02:00 +10°C° 0 mm 0 mps 539 mmHg 64%
    03:00 +10°C° 0 mm 0 mps 538 mmHg 63%
    04:00 +10°C° 0 mm 0 mps 538 mmHg 62%
    05:00 +10°C° 0 mm 1 mps 538 mmHg 61%
    06:00 +11°C° 0 mm 1 mps 539 mmHg 59%
    07:00 +12°C° 0 mm 1 mps 540 mmHg 58%
    08:00 +13°C° 0 mm 1 mps 541 mmHg 57%
    09:00 +15°C° 0 mm 2 mps 542 mmHg 50%
    10:00 +17°C° 0 mm 2 mps 543 mmHg 43%
    11:00 +19°C° 0 mm 3 mps 543 mmHg 36%
    12:00 +20°C° 0 mm 3 mps 543 mmHg 32%
    13:00 +21°C° 0 mm 4 mps 543 mmHg 27%
    14:00 +22°C° 0 mm 4 mps 542 mmHg 23%
    15:00 +21°C° 0 mm 4 mps 542 mmHg 26%
    16:00 +21°C° 0 mm 4 mps 541 mmHg 29%
    17:00 +20°C° 0 mm 3 mps 541 mmHg 31%
    18:00 +18°C° 0 mm 3 mps 540 mmHg 42%
    19:00 +16°C° 0 mm 2 mps 540 mmHg 53%
    20:00 +14°C° 0 mm 1 mps 539 mmHg 64%
    21:00 +14°C° 0 mm 1 mps 539 mmHg 68%
    22:00 +13°C° 0 mm 1 mps 539 mmHg 72%
    23:00 +13°C° 0 mm 1 mps 539 mmHg 77%

    1 June, Saturday

    Time Temperature Precipitation Wind Pressure Humidity
    00:00 +12°C° 0 mm 1 mps 539 mmHg 75%
    01:00 +12°C° 0 mm 1 mps 538 mmHg 74%
    02:00 +10°C° 0 mm 0 mps 538 mmHg 72%
    03:00 +11°C° 0 mm 1 mps 538 mmHg 68%
    04:00 +11°C° 0 mm 1 mps 538 mmHg 63%
    05:00 +10°C° 0 mm 1 mps 537 mmHg 59%
    06:00 +11°C° 0 mm 1 mps 538 mmHg 51%
    07:00 +12°C° 0 mm 1 mps 540 mmHg 43%
    08:00 +13°C° 0 mm 1 mps 541 mmHg 36%
    09:00 +16°C° 0 mm 1 mps 541 mmHg 28%
    10:00 +19°C° 0 mm 1 mps 542 mmHg 21%
    11:00 +20°C° 0 mm 2 mps 543 mmHg 13%
    12:00 +21°C° 0 mm 2 mps 543 mmHg 12%
    13:00 +22°C° 0 mm 3 mps 543 mmHg 11%
    14:00 +23°C° 0 mm 4 mps 543 mmHg 11%
    15:00 +22°C° 0 mm 3 mps 542 mmHg 13%
    16:00 +21°C° 0 mm 3 mps 542 mmHg 16%
    17:00 +21°C° 0 mm 3 mps 541 mmHg 19%
    18:00 +19°C° 0 mm 3 mps 541 mmHg 30%
    19:00 +16°C° 0 mm 2 mps 540 mmHg 42%
    20:00 +14°C° 0 mm 2 mps 540 mmHg 53%
    21:00 +14°C° 0 mm 1 mps 540 mmHg 62%
    22:00 +13°C° 0 mm 1 mps 540 mmHg 71%
    23:00 +13°C° 0 mm 1 mps 540 mmHg 80%
    Show more